(°F)
37°
37°
37°
37°
37°
37°
37°
(°F)
31°
31°
31°
31°
31°
31°
30°
WSW
SW
SW
SW
SW
SW
SW
(mph)
3-7
3-6
3-5
3-4
3-4
4-5
4-5
(in)
0
0
0
0
0
0
0
(%)
0
0
0
0
0
0
0

Sun elevation

/ -50.2°
sun-icon
UV 1
08:11
18:24
Waning gibbous moon (233°)
20:38
13:13

METAR for 51.15°N 51.54°E (UARR)

Time Conditions Temperature/
Dewpoint
Wind Visibility Weather Clouds Pressure Change Raw
VFR 37.4°F / 35.6°F 210º 4kt >10km - Clouds and Visibility OK 1016 No Significant change. Runway 22: Wet or puddles, 1-10% contamination with 2mm, friction coefficient 0.65. UARR 242030Z 21002MPS CAVOK 03/02 Q1016 R22/210265 NOSIG RMK QFE758/1011
VFR 35.6°F / 33.8°F 170º 4kt >10km - Clouds and Visibility OK 1016 No Significant change. Runway 22: Wet or puddles, 1-10% contamination with 2mm, friction coefficient 0.65. UARR 242000Z 17002MPS CAVOK 02/01 Q1016 R22/210265 NOSIG RMK QFE758/1011
VFR 35.6°F / 33.8°F variable 2kt >10km - Clouds and Visibility OK 1016 No Significant change. Runway 22: Wet or puddles, 1-10% contamination with 2mm, friction coefficient 0.65. UARR 241930Z VRB01MPS CAVOK 02/01 Q1016 R22/210265 NOSIG RMK QFE758/1011
VFR 37.4°F / 33.8°F 250º variable 220º to 280º 4kt >10km - Clouds and Visibility OK 1016 No Significant change. Runway 22: Wet or puddles, 1-10% contamination with 2mm, friction coefficient 0.65. UARR 241900Z 25002MPS 220V280 CAVOK 03/01 Q1016 R22/210265 NOSIG RMK QFE758/1011
VFR 35.6°F / 33.8°F 220º 2kt >10km - Clouds and Visibility OK 1016 No Significant change. Runway 22: Wet or puddles, 1-10% contamination with 2mm, friction coefficient 0.65. UARR 241830Z 22001MPS CAVOK 02/01 Q1016 R22/210265 NOSIG RMK QFE758/1011
VFR 35.6°F / 32°F 220º 2kt >10km - Clouds and Visibility OK 1016 No Significant change. Runway 22: Wet or puddles, 1-10% contamination with 2mm, friction coefficient 0.65. UARR 241800Z 22001MPS CAVOK 02/00 Q1016 R22/210265 NOSIG RMK QFE759/1012
VFR 35.6°F / 33.8°F 260º 4kt >10km - Clouds and Visibility OK 1016 No Significant change. Runway 22: Wet or puddles, 1-10% contamination with 2mm, friction coefficient 0.65. UARR 241730Z 26002MPS CAVOK 02/01 Q1016 R22/210265 NOSIG RMK QFE759/1012
VFR 39.2°F / 33.8°F 270º 4kt >10km - Clouds and Visibility OK 1016 No Significant change. Runway 22: Wet or puddles, 1-10% contamination with 2mm, friction coefficient 0.65. UARR 241700Z 27002MPS CAVOK 04/01 Q1016 R22/210265 NOSIG RMK QFE758/1011
VFR 41°F / 35.6°F 270º 4kt >10km - Clouds and Visibility OK 1016 No Significant change. Runway 22: Wet or puddles, 1-10% contamination with 2mm, friction coefficient 0.65. UARR 241630Z 27002MPS CAVOK 05/02 Q1016 R22/210265 NOSIG RMK QFE758/1011
VFR 41°F / 35.6°F 270º 6kt >10km - Clouds and Visibility OK 1016 No Significant change. Runway 22: Wet or puddles, 1-10% contamination with 2mm, friction coefficient 0.65. UARR 241600Z 27003MPS CAVOK 05/02 Q1016 R22/210265 NOSIG RMK QFE758/1011
VFR 42.8°F / 37.4°F 260º 4kt >10km - Clouds and Visibility OK 1016 No Significant change. Runway 22: Wet or puddles, 1-10% contamination with 2mm, friction coefficient 0.65. UARR 241530Z 26002MPS CAVOK 06/03 Q1016 R22/210265 NOSIG RMK QFE758/1011
VFR 44.6°F / 37.4°F 260º 6kt >10km - Clouds and Visibility OK 1016 No Significant change. Runway 22: Wet or puddles, 1-10% contamination with 2mm, friction coefficient 0.65. UARR 241500Z 26003MPS CAVOK 07/03 Q1016 R22/210265 NOSIG RMK QFE758/1011
VFR 46.4°F / 37.4°F 270º 6kt >10km - Clouds and Visibility OK 1016 No Significant change. Runway 22: Wet or puddles, 1-10% contamination with 2mm, friction coefficient 0.65. UARR 241430Z 27003MPS CAVOK 08/03 Q1016 R22/210265 NOSIG RMK QFE758/1011
VFR 46.4°F / 37.4°F 270º 8kt >10km - Clouds and Visibility OK 1016 No Significant change. Runway 22: Wet or puddles, 1-10% contamination with 2mm, friction coefficient 0.65. UARR 241400Z 27004MPS CAVOK 08/03 Q1016 R22/210265 NOSIG RMK QFE758/1011
VFR 46.4°F / 37.4°F 270º 6kt >10km - Clouds and Visibility OK 1016 No Significant change. Runway 22: Wet or puddles, 1-10% contamination with 2mm, friction coefficient 0.65. UARR 241330Z 27003MPS CAVOK 08/03 Q1016 R22/210265 NOSIG RMK QFE758/1011
VFR 50°F / 39.2°F 300º 8kt >10km - Clouds and Visibility OK 1016 No Significant change. Runway 22: Wet or puddles, 1-10% contamination with 2mm, friction coefficient 0.65. UARR 241300Z 30004MPS CAVOK 10/04 Q1016 R22/210265 NOSIG RMK QFE758/1011
VFR 51.8°F / 39.2°F 300º 10kt >10km - Clouds and Visibility OK 1015 No Significant change. Runway 22: Wet or puddles, 1-10% contamination with 2mm, friction coefficient 0.65. UARR 241230Z 30005MPS CAVOK 11/04 Q1015 R22/210265 NOSIG RMK QFE758/1011
VFR 55.4°F / 41°F 300º 12kt >10km - Clouds and Visibility OK 1015 No Significant change. Runway 22: Wet or puddles, 1-10% contamination with 2mm, friction coefficient 0.65. UARR 241200Z 30006MPS CAVOK 13/05 Q1015 R22/210265 NOSIG RMK QFE758/1010
VFR 55.4°F / 41°F 290º 12kt >10km - Scattered Clouds 5000ft 1015 No Significant change. Runway 22: Wet or puddles, 1-10% contamination with 2mm, friction coefficient 0.65. UARR 241130Z 29006MPS 9999 SCT050CB 13/05 Q1015 R22/210265 NOSIG RMK QFE757/1010
VFR 55.4°F / 42.8°F 290º 12kt >10km - Broken Clouds 5000ft 1015 No Significant change. Runway 22: Wet or puddles, 1-10% contamination with 2mm, friction coefficient 0.65. UARR 241100Z 29006MPS 9999 BKN050CB 13/06 Q1015 R22/210265 NOSIG RMK QFE757/1010
MVFR 55.4°F / 48.2°F 280º 10kt 9000m - Broken Clouds 2300ft 1014 No Significant change. Runway 22: Wet or puddles, 11-25% contamination with 3mm, friction coefficient 0.60. UARR 241030Z 28005MPS 9000 BKN023CB 13/09 Q1014 R22/220360 NOSIG RMK QFE757/1010
MVFR 55.4°F / 50°F 250º 10kt 9000m - Overcast 1400ft 1014 No Significant change. Runway 22: Wet or puddles, 11-25% contamination with 3mm, friction coefficient 0.60. UARR 241000Z 25005MPS 9000 OVC014CB 13/10 Q1014 R22/220360 NOSIG RMK QFE757/1010
MVFR 55.4°F / 50°F 250º 12kt >10km - Broken Clouds 1600ft 1014 No Significant change. Runway 22: Wet or puddles, 11-25% contamination with 3mm, friction coefficient 0.60. UARR 240947Z 25006MPS 9999 BKN016CB 13/10 Q1014 R22/220360 NOSIG RMK QFE757/1010
MVFR 55.4°F / 50°F 250º 10kt >10km - Overcast 1400ft 1014 No Significant change. Runway 22: Wet or puddles, 11-25% contamination with 3mm, friction coefficient 0.60. UARR 240930Z 25005MPS 9999 OVC014CB 13/10 Q1014 R22/220360 NOSIG RMK QFE757/1010

VFR

37.4°F / 35.6°F

[More]
Wind 210º 4kt
Visibility >10km
Weather -
Clouds Clouds and Visibility OK
Pressure 1016
Change No Significant change. Runway 22: Wet or puddles, 1-10% contamination with 2mm, friction coefficient 0.65.
Raw UARR 242030Z 21002MPS CAVOK 03/02 Q1016 R22/210265 NOSIG RMK QFE758/1011

VFR

35.6°F / 33.8°F

[More]
Wind 170º 4kt
Visibility >10km
Weather -
Clouds Clouds and Visibility OK
Pressure 1016
Change No Significant change. Runway 22: Wet or puddles, 1-10% contamination with 2mm, friction coefficient 0.65.
Raw UARR 242000Z 17002MPS CAVOK 02/01 Q1016 R22/210265 NOSIG RMK QFE758/1011

VFR

35.6°F / 33.8°F

[More]
Wind variable 2kt
Visibility >10km
Weather -
Clouds Clouds and Visibility OK
Pressure 1016
Change No Significant change. Runway 22: Wet or puddles, 1-10% contamination with 2mm, friction coefficient 0.65.
Raw UARR 241930Z VRB01MPS CAVOK 02/01 Q1016 R22/210265 NOSIG RMK QFE758/1011

VFR

37.4°F / 33.8°F

[More]
Wind 250º variable 220º to 280º 4kt
Visibility >10km
Weather -
Clouds Clouds and Visibility OK
Pressure 1016
Change No Significant change. Runway 22: Wet or puddles, 1-10% contamination with 2mm, friction coefficient 0.65.
Raw UARR 241900Z 25002MPS 220V280 CAVOK 03/01 Q1016 R22/210265 NOSIG RMK QFE758/1011

VFR

35.6°F / 33.8°F

[More]
Wind 220º 2kt
Visibility >10km
Weather -
Clouds Clouds and Visibility OK
Pressure 1016
Change No Significant change. Runway 22: Wet or puddles, 1-10% contamination with 2mm, friction coefficient 0.65.
Raw UARR 241830Z 22001MPS CAVOK 02/01 Q1016 R22/210265 NOSIG RMK QFE758/1011

VFR

35.6°F / 32°F

[More]
Wind 220º 2kt
Visibility >10km
Weather -
Clouds Clouds and Visibility OK
Pressure 1016
Change No Significant change. Runway 22: Wet or puddles, 1-10% contamination with 2mm, friction coefficient 0.65.
Raw UARR 241800Z 22001MPS CAVOK 02/00 Q1016 R22/210265 NOSIG RMK QFE759/1012

VFR

35.6°F / 33.8°F

[More]
Wind 260º 4kt
Visibility >10km
Weather -
Clouds Clouds and Visibility OK
Pressure 1016
Change No Significant change. Runway 22: Wet or puddles, 1-10% contamination with 2mm, friction coefficient 0.65.
Raw UARR 241730Z 26002MPS CAVOK 02/01 Q1016 R22/210265 NOSIG RMK QFE759/1012

VFR

39.2°F / 33.8°F

[More]
Wind 270º 4kt
Visibility >10km
Weather -
Clouds Clouds and Visibility OK
Pressure 1016
Change No Significant change. Runway 22: Wet or puddles, 1-10% contamination with 2mm, friction coefficient 0.65.
Raw UARR 241700Z 27002MPS CAVOK 04/01 Q1016 R22/210265 NOSIG RMK QFE758/1011

VFR

41°F / 35.6°F

[More]
Wind 270º 4kt
Visibility >10km
Weather -
Clouds Clouds and Visibility OK
Pressure 1016
Change No Significant change. Runway 22: Wet or puddles, 1-10% contamination with 2mm, friction coefficient 0.65.
Raw UARR 241630Z 27002MPS CAVOK 05/02 Q1016 R22/210265 NOSIG RMK QFE758/1011

VFR

41°F / 35.6°F

[More]
Wind 270º 6kt
Visibility >10km
Weather -
Clouds Clouds and Visibility OK
Pressure 1016
Change No Significant change. Runway 22: Wet or puddles, 1-10% contamination with 2mm, friction coefficient 0.65.
Raw UARR 241600Z 27003MPS CAVOK 05/02 Q1016 R22/210265 NOSIG RMK QFE758/1011

VFR

42.8°F / 37.4°F

[More]
Wind 260º 4kt
Visibility >10km
Weather -
Clouds Clouds and Visibility OK
Pressure 1016
Change No Significant change. Runway 22: Wet or puddles, 1-10% contamination with 2mm, friction coefficient 0.65.
Raw UARR 241530Z 26002MPS CAVOK 06/03 Q1016 R22/210265 NOSIG RMK QFE758/1011

VFR

44.6°F / 37.4°F

[More]
Wind 260º 6kt
Visibility >10km
Weather -
Clouds Clouds and Visibility OK
Pressure 1016
Change No Significant change. Runway 22: Wet or puddles, 1-10% contamination with 2mm, friction coefficient 0.65.
Raw UARR 241500Z 26003MPS CAVOK 07/03 Q1016 R22/210265 NOSIG RMK QFE758/1011

VFR

46.4°F / 37.4°F

[More]
Wind 270º 6kt
Visibility >10km
Weather -
Clouds Clouds and Visibility OK
Pressure 1016
Change No Significant change. Runway 22: Wet or puddles, 1-10% contamination with 2mm, friction coefficient 0.65.
Raw UARR 241430Z 27003MPS CAVOK 08/03 Q1016 R22/210265 NOSIG RMK QFE758/1011

VFR

46.4°F / 37.4°F

[More]
Wind 270º 8kt
Visibility >10km
Weather -
Clouds Clouds and Visibility OK
Pressure 1016
Change No Significant change. Runway 22: Wet or puddles, 1-10% contamination with 2mm, friction coefficient 0.65.
Raw UARR 241400Z 27004MPS CAVOK 08/03 Q1016 R22/210265 NOSIG RMK QFE758/1011

VFR

46.4°F / 37.4°F

[More]
Wind 270º 6kt
Visibility >10km
Weather -
Clouds Clouds and Visibility OK
Pressure 1016
Change No Significant change. Runway 22: Wet or puddles, 1-10% contamination with 2mm, friction coefficient 0.65.
Raw UARR 241330Z 27003MPS CAVOK 08/03 Q1016 R22/210265 NOSIG RMK QFE758/1011

VFR

50°F / 39.2°F

[More]
Wind 300º 8kt
Visibility >10km
Weather -
Clouds Clouds and Visibility OK
Pressure 1016
Change No Significant change. Runway 22: Wet or puddles, 1-10% contamination with 2mm, friction coefficient 0.65.
Raw UARR 241300Z 30004MPS CAVOK 10/04 Q1016 R22/210265 NOSIG RMK QFE758/1011

VFR

51.8°F / 39.2°F

[More]
Wind 300º 10kt
Visibility >10km
Weather -
Clouds Clouds and Visibility OK
Pressure 1015
Change No Significant change. Runway 22: Wet or puddles, 1-10% contamination with 2mm, friction coefficient 0.65.
Raw UARR 241230Z 30005MPS CAVOK 11/04 Q1015 R22/210265 NOSIG RMK QFE758/1011

VFR

55.4°F / 41°F

[More]
Wind 300º 12kt
Visibility >10km
Weather -
Clouds Clouds and Visibility OK
Pressure 1015
Change No Significant change. Runway 22: Wet or puddles, 1-10% contamination with 2mm, friction coefficient 0.65.
Raw UARR 241200Z 30006MPS CAVOK 13/05 Q1015 R22/210265 NOSIG RMK QFE758/1010

VFR

55.4°F / 41°F

[More]
Wind 290º 12kt
Visibility >10km
Weather -
Clouds Scattered Clouds 5000ft
Pressure 1015
Change No Significant change. Runway 22: Wet or puddles, 1-10% contamination with 2mm, friction coefficient 0.65.
Raw UARR 241130Z 29006MPS 9999 SCT050CB 13/05 Q1015 R22/210265 NOSIG RMK QFE757/1010

VFR

55.4°F / 42.8°F

[More]
Wind 290º 12kt
Visibility >10km
Weather -
Clouds Broken Clouds 5000ft
Pressure 1015
Change No Significant change. Runway 22: Wet or puddles, 1-10% contamination with 2mm, friction coefficient 0.65.
Raw UARR 241100Z 29006MPS 9999 BKN050CB 13/06 Q1015 R22/210265 NOSIG RMK QFE757/1010

MVFR

55.4°F / 48.2°F

[More]
Wind 280º 10kt
Visibility 9000m
Weather -
Clouds Broken Clouds 2300ft
Pressure 1014
Change No Significant change. Runway 22: Wet or puddles, 11-25% contamination with 3mm, friction coefficient 0.60.
Raw UARR 241030Z 28005MPS 9000 BKN023CB 13/09 Q1014 R22/220360 NOSIG RMK QFE757/1010

MVFR

55.4°F / 50°F

[More]
Wind 250º 10kt
Visibility 9000m
Weather -
Clouds Overcast 1400ft
Pressure 1014
Change No Significant change. Runway 22: Wet or puddles, 11-25% contamination with 3mm, friction coefficient 0.60.
Raw UARR 241000Z 25005MPS 9000 OVC014CB 13/10 Q1014 R22/220360 NOSIG RMK QFE757/1010

MVFR

55.4°F / 50°F

[More]
Wind 250º 12kt
Visibility >10km
Weather -
Clouds Broken Clouds 1600ft
Pressure 1014
Change No Significant change. Runway 22: Wet or puddles, 11-25% contamination with 3mm, friction coefficient 0.60.
Raw UARR 240947Z 25006MPS 9999 BKN016CB 13/10 Q1014 R22/220360 NOSIG RMK QFE757/1010

MVFR

55.4°F / 50°F

[More]
Wind 250º 10kt
Visibility >10km
Weather -
Clouds Overcast 1400ft
Pressure 1014
Change No Significant change. Runway 22: Wet or puddles, 11-25% contamination with 3mm, friction coefficient 0.60.
Raw UARR 240930Z 25005MPS 9999 OVC014CB 13/10 Q1014 R22/220360 NOSIG RMK QFE757/1010

TAF for 51.15°N 51.54°E (UARR)

From till


From till Wind variable 4kt. Visibility 10km or more. Broken Clouds 2000ft.
Temporarly from till Visibility 3100m. Light Showers Rain Mist . Broken Clouds 1100ft. Broken Clouds 3000ft.
Temporarly from till Wind 280º 10kt. Visibility 3100m. Mist . Scattered Clouds 1100ft.

Raw: TAF UARR 242001Z 2421/2506 VRB02MPS 9999 BKN020 TEMPO 2421/2503 3100 -SHRA BR BKN011 BKN030CB TEMPO 2503/2506 28005MPS 3100 BR SCT011

Current satellite and rain images for 51.15°N 51.54°E

The location marker is placed on 51.15°N 51.54°E. [More]

The real-time satellite image combines visible light during daytime with infrared radiation during nighttime. At night, the image is not dark as infrared radiation can detect temperature differences. Unfortunately, low clouds and fog are difficult to distinguish from ground temperatures and thus can be almost invisible during the night. Meteosat satellite images for Europe are updated in real-time every 5 minutes. GOES-16/GOES-17 (North & South America) and Himawari (Asia) images update every 10 minutes.

Copyright 2021 EUMETSAT / meteoblue. / Copyright 2021 meteoblue

Radar and precipitation nowcast for 51.15°N 51.54°E

Drizzle
Light
Moderate
Heavy
Very Heavy
Hail

The location marker is placed on 51.15°N 51.54°E. This animation shows the precipitation radar for the last hour, as well as a 1h forecast. Drizzle or light snow fall might be invisible for the radar. Precipitation intensity is colour coded, ranging from light blue to orange.